Time,TemperatureF,DewpointF,PressureIn,WindDirection,WindDirectionDegrees,WindSpeedMPH,WindSpeedGustMPH,Humidity,HourlyPrecipIn,Conditions,Clouds,dailyrainin,SoftwareType,DateUTC
2013-01-14 00:14:00,15.2,11.0,30.41,ESE,121,0.0,0.0,82,0.00,,,0.00,weatherlink.com 1.10,2013-01-14 06:14:00,
2013-01-14 00:29:00,15.2,10.0,30.42,ESE,122,0.0,0.0,81,0.00,,,0.00,weatherlink.com 1.10,2013-01-14 06:29:00,
2013-01-14 00:44:00,15.0,10.0,30.43,ESE,122,0.0,0.0,82,0.00,,,0.00,weatherlink.com 1.10,2013-01-14 06:44:00,
2013-01-14 01:00:00,14.8,10.0,30.45,SE,124,0.0,0.0,82,0.00,,,0.00,weatherlink.com 1.10,2013-01-14 07:00:00,
2013-01-14 01:15:00,14.5,10.0,30.45,SE,126,0.0,0.0,82,0.00,,,0.00,weatherlink.com 1.10,2013-01-14 07:15:00,
2013-01-14 01:32:00,13.9,10.0,30.46,SE,126,0.0,0.0,83,0.00,,,0.00,weatherlink.com 1.10,2013-01-14 07:32:00,
2013-01-14 01:45:00,13.5,10.0,30.47,SE,125,0.0,0.0,84,0.00,,,0.00,weatherlink.com 1.10,2013-01-14 07:45:00,
2013-01-14 02:00:00,13.0,9.0,30.48,SE,125,0.0,0.0,84,0.00,,,0.00,weatherlink.com 1.10,2013-01-14 08:00:00,
2013-01-14 02:15:00,12.9,10.0,30.48,SE,125,0.0,0.0,86,0.00,,,0.00,weatherlink.com 1.10,2013-01-14 08:15:00,
2013-01-14 02:30:00,12.5,9.0,30.49,SE,127,0.0,0.0,85,0.00,,,0.00,weatherlink.com 1.10,2013-01-14 08:30:00,
2013-01-14 02:45:00,11.9,8.0,30.49,SE,127,0.0,0.0,85,0.00,,,0.00,weatherlink.com 1.10,2013-01-14 08:45:00,
2013-01-14 03:00:00,11.1,8.0,30.50,SE,127,0.0,0.0,86,0.00,,,0.00,weatherlink.com 1.10,2013-01-14 09:00:00,
2013-01-14 03:15:00,10.8,8.0,30.49,SE,127,0.0,0.0,87,0.00,,,0.00,weatherlink.com 1.10,2013-01-14 09:15:00,
2013-01-14 03:30:00,11.1,8.0,30.49,SE,127,0.0,0.0,88,0.00,,,0.00,weatherlink.com 1.10,2013-01-14 09:30:00,
2013-01-14 03:45:00,11.1,8.0,30.49,SE,127,0.0,0.0,88,0.00,,,0.00,weatherlink.com 1.10,2013-01-14 09:45:00,
2013-01-14 04:00:00,11.0,8.0,30.48,SE,127,0.0,0.0,88,0.00,,,0.00,weatherlink.com 1.10,2013-01-14 10:00:00,
2013-01-14 04:15:00,10.6,8.0,30.48,SE,127,0.0,0.0,88,0.00,,,0.00,weatherlink.com 1.10,2013-01-14 10:15:00,
2013-01-14 04:30:00,10.1,7.0,30.47,SE,127,0.0,0.0,88,0.00,,,0.00,weatherlink.com 1.10,2013-01-14 10:30:00,
2013-01-14 04:45:00,9.6,7.0,30.48,SE,127,0.0,0.0,88,0.00,,,0.00,weatherlink.com 1.10,2013-01-14 10:45:00,
2013-01-14 05:00:00,9.9,7.0,30.48,SE,127,0.0,0.0,89,0.00,,,0.00,weatherlink.com 1.10,2013-01-14 11:00:00,
2013-01-14 05:15:00,9.9,7.0,30.48,SE,127,0.0,0.0,89,0.00,,,0.00,weatherlink.com 1.10,2013-01-14 11:15:00,
2013-01-14 05:30:00,9.7,7.0,30.48,SE,127,0.0,0.0,89,0.00,,,0.00,weatherlink.com 1.10,2013-01-14 11:30:00,
2013-01-14 05:45:00,9.4,7.0,30.49,SE,127,0.0,0.0,89,0.00,,,0.00,weatherlink.com 1.10,2013-01-14 11:45:00,
2013-01-14 06:00:00,9.4,7.0,30.49,SE,127,0.0,0.0,89,0.00,,,0.00,weatherlink.com 1.10,2013-01-14 12:00:00,
2013-01-14 06:15:00,9.6,7.0,30.49,SE,127,0.0,0.0,90,0.00,,,0.00,weatherlink.com 1.10,2013-01-14 12:15:00,
2013-01-14 06:30:00,9.8,7.0,30.49,SE,127,0.0,0.0,89,0.00,,,0.00,weatherlink.com 1.10,2013-01-14 12:30:00,
2013-01-14 06:45:00,10.1,8.0,30.49,SE,127,0.0,0.0,90,0.00,,,0.00,weatherlink.com 1.10,2013-01-14 12:45:00,
2013-01-14 07:00:00,10.2,8.0,30.50,SE,127,0.0,0.0,90,0.00,,,0.00,weatherlink.com 1.10,2013-01-14 13:00:00,
2013-01-14 07:15:00,9.9,7.0,30.50,SE,127,0.0,0.0,89,0.00,,,0.00,weatherlink.com 1.10,2013-01-14 13:15:00,
2013-01-14 07:30:00,9.8,7.0,30.52,SE,127,0.0,0.0,89,0.00,,,0.00,weatherlink.com 1.10,2013-01-14 13:30:00,
2013-01-14 07:45:00,9.9,7.0,30.53,SE,126,0.0,0.0,89,0.00,,,0.00,weatherlink.com 1.10,2013-01-14 13:45:00,
2013-01-14 08:00:00,10.3,8.0,30.52,SE,125,0.0,0.0,90,0.00,,,0.00,weatherlink.com 1.10,2013-01-14 14:00:00,
2013-01-14 08:15:00,11.3,9.0,30.52,SE,129,0.0,0.0,89,0.00,,,0.00,weatherlink.com 1.10,2013-01-14 14:15:00,
2013-01-14 08:30:00,11.7,9.0,30.54,SE,128,0.0,0.0,90,0.00,,,0.00,weatherlink.com 1.10,2013-01-14 14:30:00,
2013-01-14 08:47:00,13.1,11.0,30.55,WSW,258,0.0,0.0,89,0.00,,,0.00,weatherlink.com 1.10,2013-01-14 14:47:00,
2013-01-14 09:01:00,14.2,11.0,30.55,WSW,257,0.0,0.0,87,0.00,,,0.00,weatherlink.com 1.10,2013-01-14 15:01:00,
2013-01-14 09:16:00,17.5,14.0,30.56,WSW,257,0.0,0.0,85,0.00,,,0.00,weatherlink.com 1.10,2013-01-14 15:16:00,
2013-01-14 09:31:00,18.8,14.0,30.56,West,270,0.0,0.0,80,0.00,,,0.00,weatherlink.com 1.10,2013-01-14 15:31:00,
2013-01-14 09:46:00,20.9,14.0,30.56,WNW,302,0.0,2.0,76,0.00,,,0.00,weatherlink.com 1.10,2013-01-14 15:46:00,
2013-01-14 10:01:00,23.1,13.0,30.56,WNW,291,1.0,2.0,66,0.00,,,0.00,weatherlink.com 1.10,2013-01-14 16:01:00,
2013-01-14 10:16:00,22.9,12.0,30.56,WNW,290,1.0,4.0,64,0.00,,,0.00,weatherlink.com 1.10,2013-01-14 16:16:00,
2013-01-14 10:31:00,24.0,12.0,30.55,WNW,294,2.0,3.0,61,0.00,,,0.00,weatherlink.com 1.10,2013-01-14 16:31:00,
2013-01-14 10:46:00,23.5,11.0,30.54,WNW,300,5.0,6.0,58,0.00,,,0.00,weatherlink.com 1.10,2013-01-14 16:46:00,
2013-01-14 11:01:00,24.2,11.0,30.54,WNW,294,4.0,7.0,57,0.00,,,0.00,weatherlink.com 1.10,2013-01-14 17:01:00,
2013-01-14 11:16:00,24.6,10.0,30.52,West,281,5.0,6.0,53,0.00,,,0.00,weatherlink.com 1.10,2013-01-14 17:16:00,
2013-01-14 11:31:00,26.0,11.0,30.51,West,273,2.0,4.0,54,0.00,,,0.00,weatherlink.com 1.10,2013-01-14 17:31:00,
2013-01-14 11:46:00,26.0,12.0,30.50,WNW,293,2.0,5.0,55,0.00,,,0.00,weatherlink.com 1.10,2013-01-14 17:46:00,
2013-01-14 12:01:00,27.4,11.0,30.48,NW,308,2.0,5.0,50,0.00,,,0.00,weatherlink.com 1.10,2013-01-14 18:01:00,
2013-01-14 12:16:00,28.6,11.0,30.48,West,264,2.0,3.0,48,0.00,,,0.00,weatherlink.com 1.10,2013-01-14 18:16:00,
2013-01-14 12:31:00,29.3,10.0,30.47,NW,314,1.0,3.0,44,0.00,,,0.00,weatherlink.com 1.10,2013-01-14 18:31:00,
2013-01-14 12:46:00,29.1,9.0,30.47,WNW,287,1.0,5.0,43,0.00,,,0.00,weatherlink.com 1.10,2013-01-14 18:46:00,
2013-01-14 13:01:00,29.3,8.0,30.46,WNW,288,0.0,5.0,41,0.00,,,0.00,weatherlink.com 1.10,2013-01-14 19:01:00,
2013-01-14 13:16:00,29.4,8.0,30.46,WNW,298,2.0,4.0,41,0.00,,,0.00,weatherlink.com 1.10,2013-01-14 19:16:00,
2013-01-14 13:31:00,29.7,9.0,30.45,West,264,4.0,5.0,41,0.00,,,0.00,weatherlink.com 1.10,2013-01-14 19:31:00,
2013-01-14 13:46:00,29.6,9.0,30.45,West,271,0.0,5.0,43,0.00,,,0.00,weatherlink.com 1.10,2013-01-14 19:46:00,
2013-01-14 14:02:00,29.6,9.0,30.44,WNW,298,2.0,3.0,43,0.00,,,0.00,weatherlink.com 1.10,2013-01-14 20:02:00,
2013-01-14 14:16:00,30.2,11.0,30.44,West,281,1.0,3.0,44,0.00,,,0.00,weatherlink.com 1.10,2013-01-14 20:16:00,
2013-01-14 14:31:00,30.0,10.0,30.44,WNW,300,0.0,2.0,44,0.00,,,0.00,weatherlink.com 1.10,2013-01-14 20:31:00,
2013-01-14 14:46:00,30.2,9.0,30.44,WNW,293,1.0,3.0,41,0.00,,,0.00,weatherlink.com 1.10,2013-01-14 20:46:00,
2013-01-14 15:02:00,30.0,9.0,30.44,WNW,291,1.0,3.0,42,0.00,,,0.00,weatherlink.com 1.10,2013-01-14 21:02:00,
2013-01-14 15:17:00,29.9,10.0,30.44,SE,124,0.0,2.0,44,0.00,,,0.00,weatherlink.com 1.10,2013-01-14 21:17:00,
2013-01-14 15:32:00,29.8,11.0,30.44,ESE,122,0.0,2.0,45,0.00,,,0.00,weatherlink.com 1.10,2013-01-14 21:32:00,
2013-01-14 15:47:00,29.6,11.0,30.44,WNW,290,0.0,3.0,45,0.00,,,0.00,weatherlink.com 1.10,2013-01-14 21:47:00,
2013-01-14 16:02:00,29.4,11.0,30.44,SSE,153,0.0,1.0,46,0.00,,,0.00,weatherlink.com 1.10,2013-01-14 22:02:00,
2013-01-14 16:17:00,28.9,11.0,30.44,West,267,0.0,1.0,47,0.00,,,0.00,weatherlink.com 1.10,2013-01-14 22:17:00,
2013-01-14 16:32:00,28.8,11.0,30.44,WSW,256,0.0,3.0,47,0.00,,,0.00,weatherlink.com 1.10,2013-01-14 22:32:00,
2013-01-14 16:47:00,28.6,11.0,30.44,SE,130,0.0,0.0,47,0.00,,,0.00,weatherlink.com 1.10,2013-01-14 22:47:00,
2013-01-14 17:02:00,28.2,10.0,30.43,WNW,293,0.0,1.0,47,0.00,,,0.00,weatherlink.com 1.10,2013-01-14 23:02:00,
2013-01-14 17:17:00,27.8,13.0,30.43,ESE,122,1.0,2.0,53,0.00,,,0.00,weatherlink.com 1.10,2013-01-14 23:17:00,
2013-01-14 17:32:00,27.3,13.0,30.43,SE,145,1.0,5.0,54,0.00,,,0.00,weatherlink.com 1.10,2013-01-14 23:32:00,
2013-01-14 17:47:00,26.6,12.0,30.43,ESE,123,1.0,4.0,55,0.00,,,0.00,weatherlink.com 1.10,2013-01-14 23:47:00,
2013-01-14 18:02:00,26.1,12.0,30.43,ESE,119,1.0,4.0,56,0.00,,,0.00,weatherlink.com 1.10,2013-01-15 00:02:00,
2013-01-14 18:17:00,25.3,13.0,30.44,SSE,154,0.0,1.0,59,0.00,,,0.00,weatherlink.com 1.10,2013-01-15 00:17:00,
2013-01-14 18:32:00,24.0,12.0,30.45,SE,128,0.0,0.0,61,0.00,,,0.00,weatherlink.com 1.10,2013-01-15 00:32:00,
2013-01-14 18:47:00,22.7,13.0,30.45,SE,131,0.0,0.0,65,0.00,,,0.00,weatherlink.com 1.10,2013-01-15 00:47:00,
2013-01-14 19:02:00,22.5,13.0,30.45,SE,131,0.0,0.0,67,0.00,,,0.00,weatherlink.com 1.10,2013-01-15 01:02:00,
2013-01-14 19:17:00,22.3,13.0,30.45,SE,131,0.0,0.0,67,0.00,,,0.00,weatherlink.com 1.10,2013-01-15 01:17:00,
2013-01-14 19:32:00,21.6,13.0,30.45,SE,131,0.0,0.0,68,0.00,,,0.00,weatherlink.com 1.10,2013-01-15 01:32:00,
2013-01-14 19:47:00,20.6,12.0,30.45,SE,131,0.0,0.0,70,0.00,,,0.00,weatherlink.com 1.10,2013-01-15 01:47:00,
2013-01-14 20:02:00,20.2,13.0,30.46,SE,131,0.0,0.0,73,0.00,,,0.00,weatherlink.com 1.10,2013-01-15 02:02:00,
2013-01-14 20:17:00,20.6,13.0,30.46,SE,131,0.0,0.0,73,0.00,,,0.00,weatherlink.com 1.10,2013-01-15 02:17:00,
2013-01-14 20:32:00,20.7,14.0,30.46,SE,131,0.0,0.0,74,0.00,,,0.00,weatherlink.com 1.10,2013-01-15 02:32:00,
2013-01-14 20:47:00,20.4,14.0,30.45,SE,131,0.0,0.0,75,0.00,,,0.00,weatherlink.com 1.10,2013-01-15 02:47:00,
2013-01-14 21:02:00,20.0,14.0,30.45,SE,131,0.0,0.0,76,0.00,,,0.00,weatherlink.com 1.10,2013-01-15 03:02:00,
2013-01-14 21:17:00,19.6,14.0,30.45,SE,131,0.0,0.0,77,0.00,,,0.00,weatherlink.com 1.10,2013-01-15 03:17:00,
2013-01-14 21:32:00,19.0,13.0,30.45,SE,131,0.0,0.0,76,0.00,,,0.00,weatherlink.com 1.10,2013-01-15 03:32:00,
2013-01-14 21:47:00,18.2,12.0,30.45,SE,131,0.0,0.0,77,0.00,,,0.00,weatherlink.com 1.10,2013-01-15 03:47:00,
2013-01-14 22:02:00,18.2,13.0,30.45,SE,131,0.0,0.0,80,0.00,,,0.00,weatherlink.com 1.10,2013-01-15 04:02:00,
2013-01-14 22:18:00,18.0,13.0,30.45,SE,131,0.0,0.0,79,0.00,,,0.00,weatherlink.com 1.10,2013-01-15 04:18:00,
2013-01-14 22:32:00,17.5,12.0,30.45,SE,131,0.0,0.0,80,0.00,,,0.00,weatherlink.com 1.10,2013-01-15 04:32:00,
2013-01-14 22:47:00,16.9,12.0,30.45,SE,131,0.0,0.0,80,0.00,,,0.00,weatherlink.com 1.10,2013-01-15 04:47:00,
2013-01-14 23:02:00,16.1,11.0,30.45,SE,131,0.0,0.0,81,0.00,,,0.00,weatherlink.com 1.10,2013-01-15 05:02:00,
2013-01-14 23:17:00,15.8,11.0,30.45,SE,131,0.0,0.0,82,0.00,,,0.00,weatherlink.com 1.10,2013-01-15 05:17:00,
2013-01-14 23:32:00,15.6,11.0,30.45,SE,131,0.0,0.0,83,0.00,,,0.00,weatherlink.com 1.10,2013-01-15 05:32:00,
2013-01-14 23:47:00,15.3,11.0,30.45,SE,131,0.0,0.0,83,0.00,,,0.00,weatherlink.com 1.10,2013-01-15 05:47:00,